Hourly Data Report for July 29, 2021

ALGONQUIN PARK EAST GATE
ONTARIO
Current Station Operator: ECCC - MSC

45°32'00.000" N
78°16'00.000" W
397.00 m
6080192
71581
TNK

Download Data

Hourly Data (July 2021)
Hourly Data Report for July 29, 2021
TIME
LST
Temp Definition
°C
Dew Point Definition
°C
Rel Hum Definition
%
Precip. Amount Definition
mm

Wind Dir Definition
10's deg

Wind Spd Definition
km/h
Visibility Definition
km
Stn Press Definition
kPa
Hmdx Definition


Wind Chill Definition


Weather Definition


00:00 13.1 12.3 95 0.0   0   96.80     LegendNANA
01:00 13.4 12.9 96 0.0   0   96.76     LegendNANA
02:00 13.9 13.1 95 0.0   0   96.74     LegendNANA
03:00 13.9 13.3 96 0.0   0   96.67     LegendNANA
04:00 13.8 13.2 96 0.0 1 1   96.58     LegendNANA
05:00 14.0 13.2 95 0.0 36 1   96.57     LegendNANA
06:00 14.0 13.5 97 0.4   0   96.56     LegendNANA
07:00 14.5 13.9 97 0.5 0 1   96.43     LegendNANA
08:00 14.4 13.9 97 0.0   0   96.48     LegendNANA
09:00 15.4 13.6 89 0.0   0   96.39     LegendNANA
10:00 17.9 13.8 77 0.0 24 5   96.35     LegendNANA
11:00 19.7 13.2 66 0.0 21 4   96.30     LegendNANA
12:00 21.6 15.2 67 0.0 23 5   96.23 26   LegendNANA
13:00 20.6 15.2 71 0.0 26 3   96.19 25   LegendNANA
14:00 21.5 14.9 66 0.0 21 5   96.13 25   LegendNANA
15:00 19.6 16.8 84 0.5 31 4   96.11     LegendNANA
16:00 20.6 16.7 78 0.2 34 1   96.12 26   LegendNANA
17:00 21.0 16.4 75 0.0 30 4   96.10 26   LegendNANA
18:00 20.6 15.9 75 0.0 30 3   96.09 25   LegendNANA
19:00 18.6 15.9 84 0.5 35 2   96.15     LegendNANA
20:00 17.0 16.1 95 1.4 0 1   96.20     LegendNANA
21:00 16.1 14.3 89 0.0 36 3   96.26     LegendNANA
22:00 15.7 14.4 92 0.0 4 2   96.31     LegendNANA
23:00 14.6 13.5 93 0.0 4 3   96.39     LegendNANA

Notes on Data Quality.

Legend

  • E = Estimated
  • M = Missing
  • NA = Not Available*
  • [empty] = Indicates an unobserved value
Date modified: